Regional Weather Roundup
Issued by NWS

Home | Current Version | Previous Version | Text Only | Print | Product List | Glossary Off
Versions: 1 2 3 4 5 6 7 8 9 10 11 12 13 14 15 16 17 18 19 20 21 22 23 24 25 26 27 28 29 30 31 32 33 34 35 36 37 38 39 40 41 42 43 44 45 46 47 48 49 50

000
ASUS43 KDTX 291410
RWRMI
MICHIGAN HOURLY REGIONAL WEATHER ROUNDUP
NATIONAL WEATHER SERVICE DETROIT/PONTIAC MI
1000 AM EDT SUN MAY 29 2016

NOTE: "FAIR" INDICATES FEW OR NO CLOUDS BELOW 12,000 FEET WITH NO
SIGNIFICANT WEATHER AND/OR OBSTRUCTION TO VISIBILITY.

MIZ047>049-052>055-059>063-066>070-074>076-081>083-291500-
SOUTHEAST LOWER MICHIGAN

CITY           SKY/WX    TMP DP  RH WIND       PRES   REMARKS
ADRIAN         CLOUDY    73  66  78 SW9       30.07S
ALMA           SUNNY     74  64  70 SW15G21   30.01S
ANN ARBOR      CLOUDY    73  66  78 SW12      30.05S
BAD AXE        CLOUDY    73  66  78 SW12      30.01F
CARO           PTSUNNY   76  66  72 SW10      30.00F
DETROIT CITY   CLOUDY    75  66  73 SW8       30.05R
DETROIT        PTSUNNY   75  66  73 SW15      30.06R
FLINT          PTSUNNY   78  64  61 SW10      30.03S
GROSSE ILE     CLOUDY    77  70  78 SW5       30.05R
HILLSDALE      MOSUNNY   73  63  70 SW6       30.06S
HOWELL         MOSUNNY   75  66  72 S8        30.04F

CITY           SKY/WX    TMP DP  RH WIND       PRES   REMARKS
JACKSON        MOSUNNY   75  64  68 S12       30.04F
LAMBERTVILLE   CLOUDY    75  67  75 SW7       30.07S
LANSING        SUNNY     75  64  68 SW13      30.02F
LAPEER         FAIR      73  64  72 SW8       30.04S
MASON          SUNNY     75  63  64 SW6       30.03S
MONROE         CLOUDY    75  67  77 W9G17     30.05S
MT. CLEMENS    PTSUNNY   76  68  77 S13       30.03S
PONTIAC        CLOUDY    72  65  78 SW8       30.04S
PORT HOPE        N/A     74  67  78 VRB6      29.99R
PORT HURON     CLOUDY    72  66  83 S8        30.04S
TRI CITIES     SUNNY     77  65  66 SW15      30.00S
MIDLAND        FAIR      76  64  65 SW10G18   29.98F
TROY           PTSUNNY   74  66  76 SW7G16    30.06S
SAGINAW HB     MOSUNNY   73  64  73 SW15      30.00S
$$
MIZ043>046-050>051-056>058-064>065-071>073-077>080-291500-
SOUTHWEST LOWER MICHIGAN

CITY           SKY/WX    TMP DP  RH WIND       PRES   REMARKS
BATTLE CREEK   SUNNY     73  62  68 SW16      30.04S
BENTON HARBOR  SUNNY     74  62  66 SW13      30.01S
BIG RAPIDS     SUNNY     71  63  76 S6        29.98S
COLDWATER      SUNNY     76  62  62 SW13      30.05S
FREMONT        FAIR      70  63  77 SW9       29.98S
HOLLAND        SUNNY     73  61  65 S12       30.01S
GRAND RAPIDS   MOSUNNY   76  61  59 SW10      30.01S
IONIA          FAIR      75  59  57 SW10G16   30.01S
KALAMAZOO      MOSUNNY   75  61  61 SW12      30.04R
LUDINGTON      SUNNY     70  63  77 SW14      29.95S
MARSHALL       SUNNY     75  62  64 SW10G18   30.04S
MOUNT PLEASANT SUNNY     74  63  68 SW12      29.99R
MUSKEGON       MOSUNNY   71  59  65 S13       29.99S
SOUTH HAVEN    SUNNY     73  62  66 SW12      30.01F
$$
MIZ016>042-291500-
NORTHERN LOWER MICHIGAN

CITY           SKY/WX    TMP DP  RH WIND       PRES   REMARKS
ALPENA         MOSUNNY   77  64  64 SW13G18   29.94F
BEAVER ISLAND  SUNNY     69  61  76 SW13G18   29.90S
BELLAIRE       MOSUNNY   73  61  64 S7        29.92F
CADILLAC       SUNNY     71  61  70 S12       29.96F
CHARLEVOIX     SUNNY     72  61  69 S9G18     29.94S
FRANKFORT      SUNNY     69  63  79 S10G21    29.92F
GAYLORD        MOSUNNY   73  61  65 S15G23    29.96S
GRAYLING       MOSUNNY   74  63  68 SW9G18    29.97S
HARBOR SPRINGS MOSUNNY   70  61  73 SW7       29.92S
HOUGHTON LAKE  MOSUNNY   73  62  68 SW13G18   29.98S
MANISTEE       SUNNY     72  61  68 SW9       29.94F
OSCODA         SUNNY     78  65  64 SW12      29.96F
PELLSTON       SUNNY     75  61  61 SW14G25   29.91S
ROGERS CITY    SUNNY     74  62  64 SW9       29.93F
TRAVERSE CITY  MOSUNNY   74  62  66 VRB7      29.91S
$$
MIZ007>008-015-291500-
EASTERN UPPER MICHIGAN

CITY           SKY/WX    TMP DP  RH WIND       PRES   REMARKS
KINROSS          N/A     73  63  68 SW9G18    29.91R
MACKINAC ISLAN SUNNY     71  61  69 S3        29.91R
NEWBERRY       CLOUDY    66  62  88 S13G20    29.89R
S. S. MARIE    MOSUNNY   72  62  71 S13G20    29.89F
MUNISING         N/A     69  61  75 S14G20    29.82S
$$
MIZ004>006-011>014-085-291500-
CENTRAL UPPER MICHIGAN

CITY           SKY/WX    TMP DP  RH WIND       PRES   REMARKS
MANISTIQUE     CLOUDY    53  52  97 S6        29.89S FOG
ESCANABA       CLOUDY    63  57  82 S10       29.86S
MENOMINEE      CLOUDY    70  63  78 S13       29.86S
SAWYER-GWINN   PTSUNNY   66  59  77 SW14      29.84S
$$
MIZ001>003-009>011-084-291500-
WESTERN UPPER MICHIGAN

CITY           SKY/WX    TMP DP  RH WIND       PRES   REMARKS
IRON MOUNTAIN  PTSUNNY   68  61  78 S9        29.83S
HOUGHTON       CLOUDY    60  58  92 S3        29.79R FOG
COPPER HARBOR    N/A     58  57  97 CALM      29.77R
IRONWOOD       CLOUDY    61  59  94 W9        29.80R
$$

ABBREVIATIONS USED IN REMARKS
   TC - TEMPERATURE IN CELSIUS
  WCI - WIND CHILL INDEX
   HX - HEAT INDEX
  VSB - VISIBILITY





USA.gov is the U.S. government's official web portal to all federal, state and local government web resources and services.